Multibeam Report for EX1101


Ship Name: Okeanos Explorer
Chief Scientist: Lobecker, Elizabeth
NOAA/OAR/OER
Source Organization: National Oceanic and Atmospheric Administration (NOAA)
Start Date: 2011-03-16
End Date: 2011-04-01


View ISO Metadata

Visit the full NCEI Bathymetry Viewer


Multibeam Bathymetry

Cruise Details

Project: Ship Shakedown and Patch Tests Cruise
Instrument: Simrad EM302

Data Quality

Number of Files: 644
Number of Records: 947141
BATHYMETRY DATA Quantity Percentage
Number of Beams 134701056 100%
Number of Good Beams 123255664 91.5%
Number of Zero Beams 0 0%
Number of Flagged Beams 11445392 8.5%

Navigation Totals

Total Time: 314.3525 hours
Total Track Length: 4486.995 km
Average Speed: 14.274 km/hr (7.7073 knots)

Cruise Bounds

Northern Extent: 37.357803
Southern Extent: 32.46835
Western Extent: -122.91936
Eastern Extent: -117.492294

Limits

Minimum Sonar Depth 0 Maximum Sonar Depth 9.6137
Minimum Altitude 0 Maximum Altitude 5210.0728
Minimum Depth 1.674 Maximum Depth 5615.5547

File Information

Full Resolution Bathymetry as collected (raw): 310

Files File Size Description
0009_20110317_065635_EX1101.all.mb58.gz 79.90MB Kongsberg multibeam vendor format
0010_20110317_074852_EX1101.all.mb58.gz 378.88MB Kongsberg multibeam vendor format
0011_20110317_120538_EX1101.all.mb58.gz 22.24MB Kongsberg multibeam vendor format
0012_20110317_123121_EX1101.all.mb58.gz 72.96MB Kongsberg multibeam vendor format
0014_20110317_140259_EX1101.all.mb58.gz 106.09MB Kongsberg multibeam vendor format
0016_20110317_160750_EX1101.all.mb58.gz 64.58MB Kongsberg multibeam vendor format
0018_20110317_172923_EX1101.all.mb58.gz 67.41MB Kongsberg multibeam vendor format
0022_20110317_191907_EX1101.all.mb58.gz 1.78MB Kongsberg multibeam vendor format
0023_20110317_192103_EX1101.all.mb58.gz 53.84MB Kongsberg multibeam vendor format
0024_20110317_202116_EX1101.all.mb58.gz 10.77MB Kongsberg multibeam vendor format
0025_20110317_203240_EX1101.all.mb58.gz 48.23MB Kongsberg multibeam vendor format
0026_20110317_212627_EX1101.all.mb58.gz 9.36MB Kongsberg multibeam vendor format
0027_20110317_213703_EX1101.all.mb58.gz 51.66MB Kongsberg multibeam vendor format
0028_20110317_223513_EX1101.all.mb58.gz 45.63MB Kongsberg multibeam vendor format
0029_20110317_232419_EX1101.all.mb58.gz 74.17MB Kongsberg multibeam vendor format
0030_20110318_004441_EX1101.all.mb58.gz 13.09MB Kongsberg multibeam vendor format
0031_20110318_005809_EX1101.all.mb58.gz 71.23MB Kongsberg multibeam vendor format
0032_20110318_021600_EX1101.all.mb58.gz 138.44MB Kongsberg multibeam vendor format
0033_20110318_052244_EX1101.all.mb58.gz 11.81MB Kongsberg multibeam vendor format
0034_20110318_053621_EX1101.all.mb58.gz 35.25MB Kongsberg multibeam vendor format
0037_20110318_062811_EX1101.all.mb58.gz 46.40MB Kongsberg multibeam vendor format
0038_20110318_072032_EX1101.all.mb58.gz 176.91MB Kongsberg multibeam vendor format
0039_20110318_104527_EX1101.all.mb58.gz 81.81MB Kongsberg multibeam vendor format
0040_20110318_121637_EX1101.all.mb58.gz 42.28MB Kongsberg multibeam vendor format
0041_20110318_130106_EX1101.all.mb58.gz 59.25MB Kongsberg multibeam vendor format
0043_20110318_141731_EX1101.all.mb58.gz 63.84MB Kongsberg multibeam vendor format
0044_20110318_152715_EX1101.all.mb58.gz 31.13MB Kongsberg multibeam vendor format
0046_20110318_160001_EX1101.all.mb58.gz 88.38MB Kongsberg multibeam vendor format
0047_20110318_173323_EX1101.all.mb58.gz 10.53MB Kongsberg multibeam vendor format
0048_20110318_174417_EX1101.all.mb58.gz 77.08MB Kongsberg multibeam vendor format
0049_20110318_190250_EX1101.all.mb58.gz 11.80MB Kongsberg multibeam vendor format
0050_20110318_191503_EX1101.all.mb58.gz 90.49MB Kongsberg multibeam vendor format
0051_20110318_204646_EX1101.all.mb58.gz 71.29MB Kongsberg multibeam vendor format
0052_20110318_221531_EX1101.all.mb58.gz 115.71MB Kongsberg multibeam vendor format
0053_20110318_235207_EX1101.all.mb58.gz 10.43MB Kongsberg multibeam vendor format
0054_20110319_000246_EX1101.all.mb58.gz 112.57MB Kongsberg multibeam vendor format
0055_20110319_015214_EX1101.all.mb58.gz 11.53MB Kongsberg multibeam vendor format
0056_20110319_020333_EX1101.all.mb58.gz 90.51MB Kongsberg multibeam vendor format
0057_20110319_033456_EX1101.all.mb58.gz 19.78MB Kongsberg multibeam vendor format
0058_20110319_035504_EX1101.all.mb58.gz 12.88MB Kongsberg multibeam vendor format
0059_20110319_040802_EX1101.all.mb58.gz 100.15MB Kongsberg multibeam vendor format
0060_20110319_054737_EX1101.all.mb58.gz 10.83MB Kongsberg multibeam vendor format
0061_20110319_055802_EX1101.all.mb58.gz 117.28MB Kongsberg multibeam vendor format
0062_20110319_073806_EX1101.all.mb58.gz 14.18MB Kongsberg multibeam vendor format
0063_20110319_075225_EX1101.all.mb58.gz 125.76MB Kongsberg multibeam vendor format
0064_20110319_093352_EX1101.all.mb58.gz 135.83MB Kongsberg multibeam vendor format
0065_20110319_114520_EX1101.all.mb58.gz 213.67MB Kongsberg multibeam vendor format
0066_20110319_150117_EX1101.all.mb58.gz 8.62MB Kongsberg multibeam vendor format
0067_20110319_150719_EX1101.all.mb58.gz 23.03MB Kongsberg multibeam vendor format
0068_20110319_152329_EX1101.all.mb58.gz 12.00MB Kongsberg multibeam vendor format
0069_20110319_153152_EX1101.all.mb58.gz 43.44MB Kongsberg multibeam vendor format
0070_20110319_160213_EX1101.all.mb58.gz 35.00MB Kongsberg multibeam vendor format
0071_20110319_162619_EX1101.all.mb58.gz 65.47MB Kongsberg multibeam vendor format
0072_20110319_171150_EX1101.all.mb58.gz 62.06MB Kongsberg multibeam vendor format
0073_20110319_175409_EX1101.all.mb58.gz 141.14MB Kongsberg multibeam vendor format
0074_20110319_193020_EX1101.all.mb58.gz 132.96MB Kongsberg multibeam vendor format
0075_20110319_210110_EX1101.all.mb58.gz 27.59MB Kongsberg multibeam vendor format
0076_20110319_211944_EX1101.all.mb58.gz 220.34MB Kongsberg multibeam vendor format
0077_20110319_234226_EX1101.all.mb58.gz 26.01MB Kongsberg multibeam vendor format
0078_20110320_000029_EX1101.all.mb58.gz 65.47MB Kongsberg multibeam vendor format
0079_20110320_004540_EX1101.all.mb58.gz 190.15MB Kongsberg multibeam vendor format
0080_20110320_024417_EX1101.all.mb58.gz 30.34MB Kongsberg multibeam vendor format
0081_20110320_030312_EX1101.all.mb58.gz 214.79MB Kongsberg multibeam vendor format
0082_20110320_051727_EX1101.all.mb58.gz 28.37MB Kongsberg multibeam vendor format
0083_20110320_054629_EX1101.all.mb58.gz 41.57MB Kongsberg multibeam vendor format
0084_20110320_104959_EX1101.all.mb58.gz 280.46MB Kongsberg multibeam vendor format
0085_20110320_133121_EX1101.all.mb58.gz 109.05MB Kongsberg multibeam vendor format
0086_20110320_143138_EX1101.all.mb58.gz 88.69MB Kongsberg multibeam vendor format
0087_20110320_152711_EX1101.all.mb58.gz 58.07MB Kongsberg multibeam vendor format
0088_20110320_174309_EX1101.all.mb58.gz 133.80MB Kongsberg multibeam vendor format
0089_20110320_195523_EX1101.all.mb58.gz 27.90MB Kongsberg multibeam vendor format
0090_20110320_204305_EX1101.all.mb58.gz 85.42MB Kongsberg multibeam vendor format
0091_20110320_225531_EX1101.all.mb58.gz 140.32MB Kongsberg multibeam vendor format
0092_20110321_010828_EX1101.all.mb58.gz 321.19MB Kongsberg multibeam vendor format
0093_20110321_054554_EX1101.all.mb58.gz 39.44MB Kongsberg multibeam vendor format
0094_20110321_062728_EX1101.all.mb58.gz 36.44MB Kongsberg multibeam vendor format
0095_20110321_070615_EX1101.all.mb58.gz 88.65MB Kongsberg multibeam vendor format
0096_20110321_083738_EX1101.all.mb58.gz 24.84MB Kongsberg multibeam vendor format
0097_20110321_090109_EX1101.all.mb58.gz 128.87MB Kongsberg multibeam vendor format
0098_20110321_111142_EX1101.all.mb58.gz 3.07MB Kongsberg multibeam vendor format
0099_20110321_111457_EX1101.all.mb58.gz 28.01MB Kongsberg multibeam vendor format
0100_20110321_114443_EX1101.all.mb58.gz 6.52MB Kongsberg multibeam vendor format
0101_20110321_115135_EX1101.all.mb58.gz 187.85MB Kongsberg multibeam vendor format
0102_20110321_144816_EX1101.all.mb58.gz 7.62MB Kongsberg multibeam vendor format
0103_20110321_145353_EX1101.all.mb58.gz 9.51MB Kongsberg multibeam vendor format
0104_20110321_150034_EX1101.all.mb58.gz 4.30MB Kongsberg multibeam vendor format
0105_20110321_150326_EX1101.all.mb58.gz 56.35MB Kongsberg multibeam vendor format
0106_20110321_155038_EX1101.all.mb58.gz 105.41MB Kongsberg multibeam vendor format
0107_20110321_174150_EX1101.all.mb58.gz 1.52MB Kongsberg multibeam vendor format
0108_20110321_181225_EX1101.all.mb58.gz 21.97MB Kongsberg multibeam vendor format
0109_20110321_183524_EX1101.all.mb58.gz 193.69MB Kongsberg multibeam vendor format
0110_20110321_213154_EX1101.all.mb58.gz 213.90MB Kongsberg multibeam vendor format
0111_20110321_233227_EX1101.all.mb58.gz 36.38MB Kongsberg multibeam vendor format
0112_20110321_234616_EX1101.all.mb58.gz 49.63MB Kongsberg multibeam vendor format
0113_20110322_000445_EX1101.all.mb58.gz 99.56MB Kongsberg multibeam vendor format
0114_20110322_004617_EX1101.all.mb58.gz 30.57MB Kongsberg multibeam vendor format
0115_20110322_005658_EX1101.all.mb58.gz 18.41MB Kongsberg multibeam vendor format
0116_20110322_022123_EX1101.all.mb58.gz 276.1KB Kongsberg multibeam vendor format
0117_20110322_022401_EX1101.all.mb58.gz 70.02MB Kongsberg multibeam vendor format
0118_20110322_025657_EX1101.all.mb58.gz 16.32MB Kongsberg multibeam vendor format
0119_20110322_030412_EX1101.all.mb58.gz 126.93MB Kongsberg multibeam vendor format
0120_20110322_041049_EX1101.all.mb58.gz 22.84MB Kongsberg multibeam vendor format
0121_20110322_042244_EX1101.all.mb58.gz 9.80MB Kongsberg multibeam vendor format
0122_20110322_042813_EX1101.all.mb58.gz 127.22MB Kongsberg multibeam vendor format
0123_20110322_053919_EX1101.all.mb58.gz 15.53MB Kongsberg multibeam vendor format
0124_20110322_054759_EX1101.all.mb58.gz 156.37MB Kongsberg multibeam vendor format
0125_20110322_072115_EX1101.all.mb58.gz 20.93MB Kongsberg multibeam vendor format
0126_20110322_073512_EX1101.all.mb58.gz 7.76MB Kongsberg multibeam vendor format
0127_20110322_074018_EX1101.all.mb58.gz 163.25MB Kongsberg multibeam vendor format
0128_20110322_092743_EX1101.all.mb58.gz 14.78MB Kongsberg multibeam vendor format
0129_20110322_093709_EX1101.all.mb58.gz 7.30MB Kongsberg multibeam vendor format
0130_20110322_094159_EX1101.all.mb58.gz 152.87MB Kongsberg multibeam vendor format
0131_20110322_114437_EX1101.all.mb58.gz 6.16MB Kongsberg multibeam vendor format
0132_20110322_114846_EX1101.all.mb58.gz 12.67MB Kongsberg multibeam vendor format
0133_20110322_115709_EX1101.all.mb58.gz 5.90MB Kongsberg multibeam vendor format
0134_20110322_120107_EX1101.all.mb58.gz 126.58MB Kongsberg multibeam vendor format
0135_20110322_140650_EX1101.all.mb58.gz 13.98MB Kongsberg multibeam vendor format
0136_20110322_142115_EX1101.all.mb58.gz 5.11MB Kongsberg multibeam vendor format
0137_20110322_142627_EX1101.all.mb58.gz 79.86MB Kongsberg multibeam vendor format
0138_20110322_160728_EX1101.all.mb58.gz 151.98MB Kongsberg multibeam vendor format
0139_20110322_180525_EX1101.all.mb58.gz 10.84MB Kongsberg multibeam vendor format
0140_20110322_181233_EX1101.all.mb58.gz 28.36MB Kongsberg multibeam vendor format
0141_20110322_231431_EX1101.all.mb58.gz 175.81MB Kongsberg multibeam vendor format
0142_20110323_005138_EX1101.all.mb58.gz 1.70MB Kongsberg multibeam vendor format
0143_20110323_011431_EX1101.all.mb58.gz 12.35MB Kongsberg multibeam vendor format
0144_20110323_011826_EX1101.all.mb58.gz 14.39MB Kongsberg multibeam vendor format
0145_20110323_012301_EX1101.all.mb58.gz 56.32MB Kongsberg multibeam vendor format
0146_20110323_014706_EX1101.all.mb58.gz 190.71MB Kongsberg multibeam vendor format
0147_20110323_030219_EX1101.all.mb58.gz 79.84MB Kongsberg multibeam vendor format
0148_20110323_034350_EX1101.all.mb58.gz 6.75MB Kongsberg multibeam vendor format
0149_20110323_034721_EX1101.all.mb58.gz 88.00MB Kongsberg multibeam vendor format
0150_20110323_044140_EX1101.all.mb58.gz 3.83MB Kongsberg multibeam vendor format
0151_20110323_044421_EX1101.all.mb58.gz 101.28MB Kongsberg multibeam vendor format
0152_20110323_060106_EX1101.all.mb58.gz 14.99MB Kongsberg multibeam vendor format
0153_20110323_061532_EX1101.all.mb58.gz 19.56MB Kongsberg multibeam vendor format
0154_20110323_063228_EX1101.all.mb58.gz 3.31MB Kongsberg multibeam vendor format
0155_20110323_063445_EX1101.all.mb58.gz 59.44MB Kongsberg multibeam vendor format
0156_20110323_071409_EX1101.all.mb58.gz 6.67MB Kongsberg multibeam vendor format
0157_20110323_071813_EX1101.all.mb58.gz 107.82MB Kongsberg multibeam vendor format
0158_20110323_082550_EX1101.all.mb58.gz 18.97MB Kongsberg multibeam vendor format
0159_20110323_083710_EX1101.all.mb58.gz 112.73MB Kongsberg multibeam vendor format
0160_20110323_094348_EX1101.all.mb58.gz 7.29MB Kongsberg multibeam vendor format
0161_20110323_094756_EX1101.all.mb58.gz 9.31MB Kongsberg multibeam vendor format
0162_20110323_095310_EX1101.all.mb58.gz 110.51MB Kongsberg multibeam vendor format
0163_20110323_105709_EX1101.all.mb58.gz 5.30MB Kongsberg multibeam vendor format
0164_20110323_110024_EX1101.all.mb58.gz 3.06MB Kongsberg multibeam vendor format
0165_20110323_110211_EX1101.all.mb58.gz 3.14MB Kongsberg multibeam vendor format
0166_20110323_110359_EX1101.all.mb58.gz 94.78MB Kongsberg multibeam vendor format
0167_20110323_115546_EX1101.all.mb58.gz 10.31MB Kongsberg multibeam vendor format
0168_20110323_120113_EX1101.all.mb58.gz 103.45MB Kongsberg multibeam vendor format
0169_20110323_125825_EX1101.all.mb58.gz 4.72MB Kongsberg multibeam vendor format
0170_20110323_130110_EX1101.all.mb58.gz 3.16MB Kongsberg multibeam vendor format
0171_20110323_130258_EX1101.all.mb58.gz 1.61MB Kongsberg multibeam vendor format
0172_20110323_130350_EX1101.all.mb58.gz 94.40MB Kongsberg multibeam vendor format
0173_20110323_135352_EX1101.all.mb58.gz 22.00MB Kongsberg multibeam vendor format
0174_20110323_140403_EX1101.all.mb58.gz 96.45MB Kongsberg multibeam vendor format
0175_20110323_145421_EX1101.all.mb58.gz 13.96MB Kongsberg multibeam vendor format
0176_20110323_150143_EX1101.all.mb58.gz 100.11MB Kongsberg multibeam vendor format
0177_20110323_155204_EX1101.all.mb58.gz 16.01MB Kongsberg multibeam vendor format
0178_20110323_160923_EX1101.all.mb58.gz 72.76MB Kongsberg multibeam vendor format
0179_20110323_183819_EX1101.all.mb58.gz 280.88MB Kongsberg multibeam vendor format
0180_20110323_215123_EX1101.all.mb58.gz 110.24MB Kongsberg multibeam vendor format
0181_20110323_224225_EX1101.all.mb58.gz 247.75MB Kongsberg multibeam vendor format
0182_20110324_013357_EX1101.all.mb58.gz 31.06MB Kongsberg multibeam vendor format
0183_20110324_015556_EX1101.all.mb58.gz 201.37MB Kongsberg multibeam vendor format
0184_20110324_044109_EX1101.all.mb58.gz 8.01MB Kongsberg multibeam vendor format
0185_20110324_044520_EX1101.all.mb58.gz 10.60MB Kongsberg multibeam vendor format
0186_20110324_045127_EX1101.all.mb58.gz 4.96MB Kongsberg multibeam vendor format
0187_20110324_045431_EX1101.all.mb58.gz 185.46MB Kongsberg multibeam vendor format
0188_20110324_075142_EX1101.all.mb58.gz 12.33MB Kongsberg multibeam vendor format
0189_20110324_080357_EX1101.all.mb58.gz 2.12MB Kongsberg multibeam vendor format
0190_20110324_080605_EX1101.all.mb58.gz 291.09MB Kongsberg multibeam vendor format
0191_20110324_122317_EX1101.all.mb58.gz 9.34MB Kongsberg multibeam vendor format
0192_20110324_122618_EX1101.all.mb58.gz 30.41MB Kongsberg multibeam vendor format
0193_20110324_123819_EX1101.all.mb58.gz 7.33MB Kongsberg multibeam vendor format
0194_20110324_124148_EX1101.all.mb58.gz 170.32MB Kongsberg multibeam vendor format
0195_20110324_154350_EX1101.all.mb58.gz 74.42MB Kongsberg multibeam vendor format
0196_20110324_170256_EX1101.all.mb58.gz 1.20MB Kongsberg multibeam vendor format
0197_20110324_170411_EX1101.all.mb58.gz 11.67MB Kongsberg multibeam vendor format
0198_20110324_171624_EX1101.all.mb58.gz 1.31MB Kongsberg multibeam vendor format
0199_20110324_171747_EX1101.all.mb58.gz 109.41MB Kongsberg multibeam vendor format
0200_20110324_195137_EX1101.all.mb58.gz 114.69MB Kongsberg multibeam vendor format
0201_20110324_214354_EX1101.all.mb58.gz 51.36MB Kongsberg multibeam vendor format
0202_20110324_220711_EX1101.all.mb58.gz 232.30MB Kongsberg multibeam vendor format
0203_20110325_020610_EX1101.all.mb58.gz 18.50MB Kongsberg multibeam vendor format
0204_20110325_022548_EX1101.all.mb58.gz 164.76MB Kongsberg multibeam vendor format
0205_20110325_052124_EX1101.all.mb58.gz 13.48MB Kongsberg multibeam vendor format
0206_20110325_053546_EX1101.all.mb58.gz 172.44MB Kongsberg multibeam vendor format
0207_20110325_083735_EX1101.all.mb58.gz 13.02MB Kongsberg multibeam vendor format
0208_20110325_084636_EX1101.all.mb58.gz 178.85MB Kongsberg multibeam vendor format
0209_20110325_114211_EX1101.all.mb58.gz 12.18MB Kongsberg multibeam vendor format
0210_20110325_115224_EX1101.all.mb58.gz 3.45MB Kongsberg multibeam vendor format
0211_20110325_115449_EX1101.all.mb58.gz 183.59MB Kongsberg multibeam vendor format
0212_20110325_144559_EX1101.all.mb58.gz 20.91MB Kongsberg multibeam vendor format
0213_20110325_145809_EX1101.all.mb58.gz 35.69MB Kongsberg multibeam vendor format
0214_20110325_153557_EX1101.all.mb58.gz 72.19MB Kongsberg multibeam vendor format
0215_20110325_170619_EX1101.all.mb58.gz 1.57MB Kongsberg multibeam vendor format
0216_20110325_171837_EX1101.all.mb58.gz 63.94MB Kongsberg multibeam vendor format
0217_20110325_181642_EX1101.all.mb58.gz 7.16MB Kongsberg multibeam vendor format
0218_20110325_182144_EX1101.all.mb58.gz 96.77MB Kongsberg multibeam vendor format
0219_20110325_192656_EX1101.all.mb58.gz 56.63MB Kongsberg multibeam vendor format
0220_20110325_200809_EX1101.all.mb58.gz 10.70MB Kongsberg multibeam vendor format
0221_20110325_201431_EX1101.all.mb58.gz 58.82MB Kongsberg multibeam vendor format
0223_20110325_213959_EX1101.all.mb58.gz 79.21MB Kongsberg multibeam vendor format
0224_20110325_222708_EX1101.all.mb58.gz 23.48MB Kongsberg multibeam vendor format
0225_20110325_223902_EX1101.all.mb58.gz 32.28MB Kongsberg multibeam vendor format
0226_20110325_225738_EX1101.all.mb58.gz 31.51MB Kongsberg multibeam vendor format
0227_20110325_231630_EX1101.all.mb58.gz 17.45MB Kongsberg multibeam vendor format
0228_20110325_232501_EX1101.all.mb58.gz 12.68MB Kongsberg multibeam vendor format
0229_20110325_232945_EX1101.all.mb58.gz 14.39MB Kongsberg multibeam vendor format
0230_20110325_233622_EX1101.all.mb58.gz 17.41MB Kongsberg multibeam vendor format
0231_20110325_234409_EX1101.all.mb58.gz 146.55MB Kongsberg multibeam vendor format
0232_20110326_010147_EX1101.all.mb58.gz 24.48MB Kongsberg multibeam vendor format
0233_20110326_022122_EX1101.all.mb58.gz 70.55MB Kongsberg multibeam vendor format
0234_20110326_030944_EX1101.all.mb58.gz 355.35MB Kongsberg multibeam vendor format
0235_20110326_090952_EX1101.all.mb58.gz 266.81MB Kongsberg multibeam vendor format
0236_20110326_145838_EX1101.all.mb58.gz 11.23MB Kongsberg multibeam vendor format
0237_20110326_151337_EX1101.all.mb58.gz 242.24MB Kongsberg multibeam vendor format
0238_20110326_202009_EX1101.all.mb58.gz 17.27MB Kongsberg multibeam vendor format
0239_20110326_204315_EX1101.all.mb58.gz 177.20MB Kongsberg multibeam vendor format
0240_20110327_001436_EX1101.all.mb58.gz 129.46MB Kongsberg multibeam vendor format
0241_20110327_030553_EX1101.all.mb58.gz 14.41MB Kongsberg multibeam vendor format
0242_20110327_032454_EX1101.all.mb58.gz 125.48MB Kongsberg multibeam vendor format
0243_20110327_061225_EX1101.all.mb58.gz 168.61MB Kongsberg multibeam vendor format
0244_20110327_093725_EX1101.all.mb58.gz 18.74MB Kongsberg multibeam vendor format
0245_20110327_100213_EX1101.all.mb58.gz 152.53MB Kongsberg multibeam vendor format
0246_20110327_131241_EX1101.all.mb58.gz 76.50MB Kongsberg multibeam vendor format
0247_20110327_151418_EX1101.all.mb58.gz 53.16MB Kongsberg multibeam vendor format
0248_20110327_162514_EX1101.all.mb58.gz 1.53MB Kongsberg multibeam vendor format
0249_20110327_163839_EX1101.all.mb58.gz 6.24MB Kongsberg multibeam vendor format
0250_20110327_164658_EX1101.all.mb58.gz 234.02MB Kongsberg multibeam vendor format
0251_20110327_220030_EX1101.all.mb58.gz 2.11MB Kongsberg multibeam vendor format
0252_20110327_222318_EX1101.all.mb58.gz 79.50MB Kongsberg multibeam vendor format
0253_20110328_000941_EX1101.all.mb58.gz 189.07MB Kongsberg multibeam vendor format
0254_20110328_042231_EX1101.all.mb58.gz 14.10MB Kongsberg multibeam vendor format
0255_20110328_044119_EX1101.all.mb58.gz 142.61MB Kongsberg multibeam vendor format
0256_20110328_075313_EX1101.all.mb58.gz 131.94MB Kongsberg multibeam vendor format
0257_20110328_104804_EX1101.all.mb58.gz 18.32MB Kongsberg multibeam vendor format
0258_20110328_111214_EX1101.all.mb58.gz 143.54MB Kongsberg multibeam vendor format
0259_20110328_142147_EX1101.all.mb58.gz 139.38MB Kongsberg multibeam vendor format
0260_20110328_172812_EX1101.all.mb58.gz 15.27MB Kongsberg multibeam vendor format
0261_20110328_174843_EX1101.all.mb58.gz 249.27MB Kongsberg multibeam vendor format
0262_20110328_231815_EX1101.all.mb58.gz 3.71MB Kongsberg multibeam vendor format
0263_20110328_233603_EX1101.all.mb58.gz 3.39MB Kongsberg multibeam vendor format
0264_20110328_234033_EX1101.all.mb58.gz 14.01MB Kongsberg multibeam vendor format
0265_20110329_000002_EX1101.all.mb58.gz 134.64MB Kongsberg multibeam vendor format
0266_20110329_031201_EX1101.all.mb58.gz 42.29MB Kongsberg multibeam vendor format
0267_20110329_041253_EX1101.all.mb58.gz 56.86MB Kongsberg multibeam vendor format
0268_20110329_052747_EX1101.all.mb58.gz 305.32MB Kongsberg multibeam vendor format
0269_20110329_110307_EX1101.all.mb58.gz 546.43MB Kongsberg multibeam vendor format
0270_20110329_170308_EX1101.all.mb58.gz 106.21MB Kongsberg multibeam vendor format
0271_20110329_182114_EX1101.all.mb58.gz 127.34MB Kongsberg multibeam vendor format
0272_20110329_195105_EX1101.all.mb58.gz 7.74MB Kongsberg multibeam vendor format
0273_20110329_201102_EX1101.all.mb58.gz 36.04MB Kongsberg multibeam vendor format
0274_20110329_204321_EX1101.all.mb58.gz 136.69MB Kongsberg multibeam vendor format
0275_20110329_222706_EX1101.all.mb58.gz 34.39MB Kongsberg multibeam vendor format
0276_20110329_224742_EX1101.all.mb58.gz 50.48MB Kongsberg multibeam vendor format
0277_20110329_232431_EX1101.all.mb58.gz 10.99MB Kongsberg multibeam vendor format
0278_20110329_233531_EX1101.all.mb58.gz 35.33MB Kongsberg multibeam vendor format
0279_20110330_000020_EX1101.all.mb58.gz 62.44MB Kongsberg multibeam vendor format
0280_20110330_003855_EX1101.all.mb58.gz 12.06MB Kongsberg multibeam vendor format
0281_20110330_004732_EX1101.all.mb58.gz 73.61MB Kongsberg multibeam vendor format
0282_20110330_012933_EX1101.all.mb58.gz 7.53MB Kongsberg multibeam vendor format
0283_20110330_013442_EX1101.all.mb58.gz 118.85MB Kongsberg multibeam vendor format
0284_20110330_024133_EX1101.all.mb58.gz 7.97MB Kongsberg multibeam vendor format
0285_20110330_024628_EX1101.all.mb58.gz 70.02MB Kongsberg multibeam vendor format
0286_20110330_032841_EX1101.all.mb58.gz 14.38MB Kongsberg multibeam vendor format
0287_20110330_033735_EX1101.all.mb58.gz 91.93MB Kongsberg multibeam vendor format
0288_20110330_043954_EX1101.all.mb58.gz 16.01MB Kongsberg multibeam vendor format
0289_20110330_045028_EX1101.all.mb58.gz 44.76MB Kongsberg multibeam vendor format
0290_20110330_053112_EX1101.all.mb58.gz 4.64MB Kongsberg multibeam vendor format
0291_20110330_053543_EX1101.all.mb58.gz 53.67MB Kongsberg multibeam vendor format
0292_20110330_062823_EX1101.all.mb58.gz 49.46MB Kongsberg multibeam vendor format
0293_20110330_071729_EX1101.all.mb58.gz 24.62MB Kongsberg multibeam vendor format
0294_20110330_073840_EX1101.all.mb58.gz 64.11MB Kongsberg multibeam vendor format
0295_20110330_083032_EX1101.all.mb58.gz 10.44MB Kongsberg multibeam vendor format
0296_20110330_084051_EX1101.all.mb58.gz 133.49MB Kongsberg multibeam vendor format
0297_20110330_100711_EX1101.all.mb58.gz 13.70MB Kongsberg multibeam vendor format
0298_20110330_101557_EX1101.all.mb58.gz 108.89MB Kongsberg multibeam vendor format
0299_20110330_112344_EX1101.all.mb58.gz 8.36MB Kongsberg multibeam vendor format
0300_20110330_113221_EX1101.all.mb58.gz 126.08MB Kongsberg multibeam vendor format
0301_20110330_130337_EX1101.all.mb58.gz 23.55MB Kongsberg multibeam vendor format
0302_20110330_132245_EX1101.all.mb58.gz 69.68MB Kongsberg multibeam vendor format
0303_20110330_142821_EX1101.all.mb58.gz 15.40MB Kongsberg multibeam vendor format
0304_20110330_144351_EX1101.all.mb58.gz 59.07MB Kongsberg multibeam vendor format
0305_20110330_154219_EX1101.all.mb58.gz 9.99MB Kongsberg multibeam vendor format
0306_20110330_155215_EX1101.all.mb58.gz 152.40MB Kongsberg multibeam vendor format
0307_20110330_181724_EX1101.all.mb58.gz 101.25MB Kongsberg multibeam vendor format
0308_20110330_195013_EX1101.all.mb58.gz 4.20MB Kongsberg multibeam vendor format
0309_20110330_195426_EX1101.all.mb58.gz 30.31MB Kongsberg multibeam vendor format
0310_20110330_210341_EX1101.all.mb58.gz 144.83MB Kongsberg multibeam vendor format
0311_20110330_222733_EX1101.all.mb58.gz 37.90MB Kongsberg multibeam vendor format
0312_20110330_231025_EX1101.all.mb58.gz 24.53MB Kongsberg multibeam vendor format
0314_20110331_032619_EX1101.all.mb58.gz 392.71MB Kongsberg multibeam vendor format
0315_20110331_092617_EX1101.all.mb58.gz 180.14MB Kongsberg multibeam vendor format
0316_20110331_110952_EX1101.all.mb58.gz 22.66MB Kongsberg multibeam vendor format
0317_20110331_112424_EX1101.all.mb58.gz 255.67MB Kongsberg multibeam vendor format
0000_20110317_024516_EX1101.all.mb58.gz 12.21MB Kongsberg multibeam vendor format
0001_20110317_025544_EX1101.all.mb58.gz 15.17MB Kongsberg multibeam vendor format
0002_20110317_030356_EX1101.all.mb58.gz 18.33MB Kongsberg multibeam vendor format
0013_20110317_135114_EX1101.all.mb58.gz 11.44MB Kongsberg multibeam vendor format
0015_20110317_155714_EX1101.all.mb58.gz 10.27MB Kongsberg multibeam vendor format
0017_20110317_171746_EX1101.all.mb58.gz 11.28MB Kongsberg multibeam vendor format
0019_20110317_184156_EX1101.all.mb58.gz 9.09MB Kongsberg multibeam vendor format
0020_20110317_185237_EX1101.all.mb58.gz 11.63MB Kongsberg multibeam vendor format
0021_20110317_191035_EX1101.all.mb58.gz 2.24MB Kongsberg multibeam vendor format
0035_20110318_061644_EX1101.all.mb58.gz 7.56MB Kongsberg multibeam vendor format
0036_20110318_062512_EX1101.all.mb58.gz 2.63MB Kongsberg multibeam vendor format
0042_20110318_140505_EX1101.all.mb58.gz 11.95MB Kongsberg multibeam vendor format
0222_20110325_205231_EX1101.all.mb58.gz 65.00MB Kongsberg multibeam vendor format

Full Resolution Bathymetry (processed): 297

Files File Size Description
EX1101_EXApril09_2011-076_0009_20110317_065635_EX1101.txt.mb163 11.53MB Generic YXZ sounding format
EX1101_EXApril09_2011-076_0010_20110317_074852_EX1101.txt.mb163 44.23MB Generic YXZ sounding format
EX1101_EXApril09_2011-076_0011_20110317_120538_EX1101.txt.mb163 1.66MB Generic YXZ sounding format
EX1101_EXApril09_2011-076_0012_20110317_123121_EX1101.txt.mb163 5.01MB Generic YXZ sounding format
EX1101_EXApril09_2011-076_0014_20110317_140259_EX1101.txt.mb163 7.68MB Generic YXZ sounding format
EX1101_EXApril09_2011-076_0016_20110317_160750_EX1101.txt.mb163 4.74MB Generic YXZ sounding format
EX1101_EXApril09_2011-076_0018_20110317_172923_EX1101.txt.mb163 4.97MB Generic YXZ sounding format
EX1101_EXApril09_2011-076_0022_20110317_191907_EX1101.txt.mb163 117.8KB Generic YXZ sounding format
EX1101_EXApril09_2011-076_0023_20110317_192103_EX1101.txt.mb163 3.84MB Generic YXZ sounding format
EX1101_EXApril09_2011-076_0024_20110317_202116_EX1101.txt.mb163 0.86MB Generic YXZ sounding format
EX1101_EXApril09_2011-076_0025_20110317_203240_EX1101.txt.mb163 3.48MB Generic YXZ sounding format
EX1101_EXApril09_2011-076_0026_20110317_212627_EX1101.txt.mb163 0.61MB Generic YXZ sounding format
EX1101_EXApril09_2011-076_0027_20110317_213703_EX1101.txt.mb163 3.96MB Generic YXZ sounding format
EX1101_EXApril09_2011-076_0028_20110317_223513_EX1101.txt.mb163 3.61MB Generic YXZ sounding format
EX1101_EXApril09_2011-076_0029_20110317_232419_EX1101.txt.mb163 5.47MB Generic YXZ sounding format
EX1101_EXApril09_2011-076_0030_20110318_004441_EX1101.txt.mb163 1.10MB Generic YXZ sounding format
EX1101_EXApril09_2011-077_0031_20110318_005809_EX1101.txt.mb163 5.22MB Generic YXZ sounding format
EX1101_EXApril09_2011-077_0032_20110318_021600_EX1101.txt.mb163 10.32MB Generic YXZ sounding format
EX1101_EXApril09_2011-077_0033_20110318_052244_EX1101.txt.mb163 0.81MB Generic YXZ sounding format
EX1101_EXApril09_2011-077_0034_20110318_053621_EX1101.txt.mb163 2.50MB Generic YXZ sounding format
EX1101_EXApril09_2011-077_0037_20110318_062811_EX1101.txt.mb163 3.27MB Generic YXZ sounding format
EX1101_EXApril09_2011-077_0038_20110318_072032_EX1101.txt.mb163 11.64MB Generic YXZ sounding format
EX1101_EXApril09_2011-077_0039_20110318_104527_EX1101.txt.mb163 6.20MB Generic YXZ sounding format
EX1101_EXApril09_2011-077_0040_20110318_121637_EX1101.txt.mb163 3.55MB Generic YXZ sounding format
EX1101_EXApril09_2011-077_0041_20110318_130106_EX1101.txt.mb163 4.33MB Generic YXZ sounding format
EX1101_EXApril09_2011-077_0043_20110318_141731_EX1101.txt.mb163 4.70MB Generic YXZ sounding format
EX1101_EXApril09_2011-077_0044_20110318_152715_EX1101.txt.mb163 2.62MB Generic YXZ sounding format
EX1101_EXApril09_2011-077_0046_20110318_160001_EX1101.txt.mb163 6.74MB Generic YXZ sounding format
EX1101_EXApril09_2011-077_0047_20110318_173323_EX1101.txt.mb163 0.90MB Generic YXZ sounding format
EX1101_EXApril09_2011-077_0048_20110318_174417_EX1101.txt.mb163 5.53MB Generic YXZ sounding format
EX1101_EXApril09_2011-077_0049_20110318_190250_EX1101.txt.mb163 0.93MB Generic YXZ sounding format
EX1101_EXApril09_2011-077_0050_20110318_191503_EX1101.txt.mb163 7.71MB Generic YXZ sounding format
EX1101_EXApril09_2011-077_0051_20110318_204646_EX1101.txt.mb163 6.03MB Generic YXZ sounding format
EX1101_EXApril09_2011-077_0052_20110318_221531_EX1101.txt.mb163 9.13MB Generic YXZ sounding format
EX1101_EXApril09_2011-077_0053_20110318_235207_EX1101.txt.mb163 0.74MB Generic YXZ sounding format
EX1101_EXApril09_2011-078_0054_20110319_000246_EX1101.txt.mb163 9.96MB Generic YXZ sounding format
EX1101_EXApril09_2011-078_0055_20110319_015214_EX1101.txt.mb163 0.70MB Generic YXZ sounding format
EX1101_EXApril09_2011-078_0056_20110319_020333_EX1101.txt.mb163 7.91MB Generic YXZ sounding format
EX1101_EXApril09_2011-078_0057_20110319_033456_EX1101.txt.mb163 1.57MB Generic YXZ sounding format
EX1101_EXApril09_2011-078_0058_20110319_035504_EX1101.txt.mb163 1.07MB Generic YXZ sounding format
EX1101_EXApril09_2011-078_0059_20110319_040802_EX1101.txt.mb163 8.44MB Generic YXZ sounding format
EX1101_EXApril09_2011-078_0060_20110319_054737_EX1101.txt.mb163 0.99MB Generic YXZ sounding format
EX1101_EXApril09_2011-078_0061_20110319_055802_EX1101.txt.mb163 9.72MB Generic YXZ sounding format
EX1101_EXApril09_2011-078_0062_20110319_073806_EX1101.txt.mb163 1.04MB Generic YXZ sounding format
EX1101_EXApril09_2011-078_0063_20110319_075225_EX1101.txt.mb163 10.12MB Generic YXZ sounding format
EX1101_EXApril09_2011-078_0064_20110319_093352_EX1101.txt.mb163 11.74MB Generic YXZ sounding format
EX1101_EXApril09_2011-078_0065_20110319_114520_EX1101.txt.mb163 18.25MB Generic YXZ sounding format
EX1101_EXApril09_2011-078_0066_20110319_150117_EX1101.txt.mb163 0.70MB Generic YXZ sounding format
EX1101_EXApril09_2011-078_0067_20110319_150719_EX1101.txt.mb163 1.88MB Generic YXZ sounding format
EX1101_EXApril09_2011-078_0068_20110319_152329_EX1101.txt.mb163 0.96MB Generic YXZ sounding format
EX1101_EXApril09_2011-078_0069_20110319_153152_EX1101.txt.mb163 3.53MB Generic YXZ sounding format
EX1101_EXApril09_2011-078_0070_20110319_160213_EX1101.txt.mb163 2.89MB Generic YXZ sounding format
EX1101_EXApril09_2011-078_0071_20110319_162619_EX1101.txt.mb163 5.45MB Generic YXZ sounding format
EX1101_EXApril09_2011-078_0072_20110319_171150_EX1101.txt.mb163 5.14MB Generic YXZ sounding format
EX1101_EXApril09_2011-078_0073_20110319_175409_EX1101.txt.mb163 12.10MB Generic YXZ sounding format
EX1101_EXApril09_2011-078_0074_20110319_193020_EX1101.txt.mb163 11.49MB Generic YXZ sounding format
EX1101_EXApril09_2011-078_0075_20110319_210110_EX1101.txt.mb163 2.42MB Generic YXZ sounding format
EX1101_EXApril09_2011-078_0076_20110319_211944_EX1101.txt.mb163 19.29MB Generic YXZ sounding format
EX1101_EXApril09_2011-078_0077_20110319_234226_EX1101.txt.mb163 2.17MB Generic YXZ sounding format
EX1101_EXApril09_2011-079_0078_20110320_000029_EX1101.txt.mb163 5.48MB Generic YXZ sounding format
EX1101_EXApril09_2011-079_0079_20110320_004540_EX1101.txt.mb163 17.72MB Generic YXZ sounding format
EX1101_EXApril09_2011-079_0080_20110320_024417_EX1101.txt.mb163 2.65MB Generic YXZ sounding format
EX1101_EXApril09_2011-079_0081_20110320_030312_EX1101.txt.mb163 19.62MB Generic YXZ sounding format
EX1101_EXApril09_2011-079_0082_20110320_051727_EX1101.txt.mb163 1.41MB Generic YXZ sounding format
EX1101_EXApril09_2011-079_0083_20110320_054629_EX1101.txt.mb163 1.05MB Generic YXZ sounding format
EX1101_EXApril09_2011-079_0084_20110320_104959_EX1101.txt.mb163 28.65MB Generic YXZ sounding format
EX1101_EXApril09_2011-079_0085_20110320_133121_EX1101.txt.mb163 11.33MB Generic YXZ sounding format
EX1101_EXApril09_2011-079_0086_20110320_143138_EX1101.txt.mb163 8.26MB Generic YXZ sounding format
EX1101_EXApril09_2011-079_0087_20110320_152711_EX1101.txt.mb163 5.03MB Generic YXZ sounding format
EX1101_EXApril09_2011-079_0088_20110320_174309_EX1101.txt.mb163 9.66MB Generic YXZ sounding format
EX1101_EXApril09_2011-079_0089_20110320_195523_EX1101.txt.mb163 1.64MB Generic YXZ sounding format
EX1101_EXApril09_2011-079_0090_20110320_204305_EX1101.txt.mb163 4.85MB Generic YXZ sounding format
EX1101_EXApril09_2011-079_0091_20110320_225531_EX1101.txt.mb163 13.72MB Generic YXZ sounding format
EX1101_EXApril09_2011-080_0092_20110321_010828_EX1101.txt.mb163 27.28MB Generic YXZ sounding format
EX1101_EXApril09_2011-080_0093_20110321_054554_EX1101.txt.mb163 2.40MB Generic YXZ sounding format
EX1101_EXApril09_2011-080_0094_20110321_062728_EX1101.txt.mb163 2.72MB Generic YXZ sounding format
EX1101_EXApril09_2011-080_0095_20110321_070615_EX1101.txt.mb163 6.54MB Generic YXZ sounding format
EX1101_EXApril09_2011-080_0096_20110321_083738_EX1101.txt.mb163 2.38MB Generic YXZ sounding format
EX1101_EXApril09_2011-080_0097_20110321_090109_EX1101.txt.mb163 10.44MB Generic YXZ sounding format
EX1101_EXApril09_2011-080_0098_20110321_111142_EX1101.txt.mb163 247.3KB Generic YXZ sounding format
EX1101_EXApril09_2011-080_0099_20110321_111457_EX1101.txt.mb163 2.16MB Generic YXZ sounding format
EX1101_EXApril09_2011-080_0100_20110321_114443_EX1101.txt.mb163 510.5KB Generic YXZ sounding format
EX1101_EXApril09_2011-080_0101_20110321_115135_EX1101.txt.mb163 14.91MB Generic YXZ sounding format
EX1101_EXApril09_2011-080_0102_20110321_144816_EX1101.txt.mb163 0.56MB Generic YXZ sounding format
EX1101_EXApril09_2011-080_0103_20110321_145353_EX1101.txt.mb163 0.72MB Generic YXZ sounding format
EX1101_EXApril09_2011-080_0104_20110321_150034_EX1101.txt.mb163 350.2KB Generic YXZ sounding format
EX1101_EXApril09_2011-080_0105_20110321_150326_EX1101.txt.mb163 4.25MB Generic YXZ sounding format
EX1101_EXApril09_2011-080_0106_20110321_155038_EX1101.txt.mb163 8.54MB Generic YXZ sounding format
EX1101_EXApril09_2011-080_0107_20110321_174150_EX1101.txt.mb163 127.7KB Generic YXZ sounding format
EX1101_EXApril09_2011-080_0108_20110321_181225_EX1101.txt.mb163 1.69MB Generic YXZ sounding format
EX1101_EXApril09_2011-080_0109_20110321_183524_EX1101.txt.mb163 15.92MB Generic YXZ sounding format
EX1101_EXApril09_2011-080_0110_20110321_213154_EX1101.txt.mb163 24.40MB Generic YXZ sounding format
EX1101_EXApril09_2011-080_0111_20110321_233227_EX1101.txt.mb163 6.27MB Generic YXZ sounding format
EX1101_EXApril09_2011-080_0112_20110321_234616_EX1101.txt.mb163 7.75MB Generic YXZ sounding format
EX1101_EXApril09_2011-081_0113_20110322_000445_EX1101.txt.mb163 14.14MB Generic YXZ sounding format
EX1101_EXApril09_2011-081_0114_20110322_004617_EX1101.txt.mb163 4.91MB Generic YXZ sounding format
EX1101_EXApril09_2011-081_0115_20110322_005658_EX1101.txt.mb163 2.61MB Generic YXZ sounding format
EX1101_EXApril09_2011-081_0116_20110322_022123_EX1101.txt.mb163 16.5KB Generic YXZ sounding format
EX1101_EXApril09_2011-081_0117_20110322_022401_EX1101.txt.mb163 9.50MB Generic YXZ sounding format
EX1101_EXApril09_2011-081_0118_20110322_025657_EX1101.txt.mb163 1.95MB Generic YXZ sounding format
EX1101_EXApril09_2011-081_0119_20110322_030412_EX1101.txt.mb163 15.42MB Generic YXZ sounding format
EX1101_EXApril09_2011-081_0120_20110322_041049_EX1101.txt.mb163 2.59MB Generic YXZ sounding format
EX1101_EXApril09_2011-081_0121_20110322_042244_EX1101.txt.mb163 0.93MB Generic YXZ sounding format
EX1101_EXApril09_2011-081_0122_20110322_042813_EX1101.txt.mb163 11.70MB Generic YXZ sounding format
EX1101_EXApril09_2011-081_0123_20110322_053919_EX1101.txt.mb163 1.49MB Generic YXZ sounding format
EX1101_EXApril09_2011-081_0124_20110322_054759_EX1101.txt.mb163 12.55MB Generic YXZ sounding format
EX1101_EXApril09_2011-081_0125_20110322_072115_EX1101.txt.mb163 1.33MB Generic YXZ sounding format
EX1101_EXApril09_2011-081_0126_20110322_073512_EX1101.txt.mb163 498.7KB Generic YXZ sounding format
EX1101_EXApril09_2011-081_0127_20110322_074018_EX1101.txt.mb163 11.08MB Generic YXZ sounding format
EX1101_EXApril09_2011-081_0128_20110322_092743_EX1101.txt.mb163 1.40MB Generic YXZ sounding format
EX1101_EXApril09_2011-081_0129_20110322_093709_EX1101.txt.mb163 0.67MB Generic YXZ sounding format
EX1101_EXApril09_2011-081_0130_20110322_094159_EX1101.txt.mb163 13.99MB Generic YXZ sounding format
EX1101_EXApril09_2011-081_0131_20110322_114437_EX1101.txt.mb163 0.51MB Generic YXZ sounding format
EX1101_EXApril09_2011-081_0132_20110322_114846_EX1101.txt.mb163 1.07MB Generic YXZ sounding format
EX1101_EXApril09_2011-081_0133_20110322_115709_EX1101.txt.mb163 506.4KB Generic YXZ sounding format
EX1101_EXApril09_2011-081_0134_20110322_120107_EX1101.txt.mb163 10.87MB Generic YXZ sounding format
EX1101_EXApril09_2011-081_0135_20110322_140650_EX1101.txt.mb163 1.10MB Generic YXZ sounding format
EX1101_EXApril09_2011-081_0136_20110322_142115_EX1101.txt.mb163 350.3KB Generic YXZ sounding format
EX1101_EXApril09_2011-081_0137_20110322_142627_EX1101.txt.mb163 6.15MB Generic YXZ sounding format
EX1101_EXApril09_2011-081_0138_20110322_160728_EX1101.txt.mb163 12.55MB Generic YXZ sounding format
EX1101_EXApril09_2011-081_0139_20110322_180525_EX1101.txt.mb163 0.95MB Generic YXZ sounding format
EX1101_EXApril09_2011-081_0140_20110322_181233_EX1101.txt.mb163 2.42MB Generic YXZ sounding format
EX1101_EXApril09_2011-081_0141_20110322_231431_EX1101.txt.mb163 20.77MB Generic YXZ sounding format
EX1101_EXApril09_2011-082_0142_20110323_005138_EX1101.txt.mb163 328.3KB Generic YXZ sounding format
EX1101_EXApril09_2011-082_0143_20110323_011431_EX1101.txt.mb163 2.07MB Generic YXZ sounding format
EX1101_EXApril09_2011-082_0144_20110323_011826_EX1101.txt.mb163 1.67MB Generic YXZ sounding format
EX1101_EXApril09_2011-082_0145_20110323_012301_EX1101.txt.mb163 8.34MB Generic YXZ sounding format
EX1101_EXApril09_2011-082_0146_20110323_014706_EX1101.txt.mb163 31.91MB Generic YXZ sounding format
EX1101_EXApril09_2011-082_0147_20110323_030219_EX1101.txt.mb163 8.59MB Generic YXZ sounding format
EX1101_EXApril09_2011-082_0148_20110323_034350_EX1101.txt.mb163 0.68MB Generic YXZ sounding format
EX1101_EXApril09_2011-082_0149_20110323_034721_EX1101.txt.mb163 8.06MB Generic YXZ sounding format
EX1101_EXApril09_2011-082_0150_20110323_044140_EX1101.txt.mb163 319.0KB Generic YXZ sounding format
EX1101_EXApril09_2011-082_0151_20110323_044421_EX1101.txt.mb163 8.79MB Generic YXZ sounding format
EX1101_EXApril09_2011-082_0152_20110323_060106_EX1101.txt.mb163 1.25MB Generic YXZ sounding format
EX1101_EXApril09_2011-082_0153_20110323_061532_EX1101.txt.mb163 1.78MB Generic YXZ sounding format
EX1101_EXApril09_2011-082_0154_20110323_063228_EX1101.txt.mb163 286.7KB Generic YXZ sounding format
EX1101_EXApril09_2011-082_0155_20110323_063445_EX1101.txt.mb163 5.31MB Generic YXZ sounding format
EX1101_EXApril09_2011-082_0156_20110323_071409_EX1101.txt.mb163 0.57MB Generic YXZ sounding format
EX1101_EXApril09_2011-082_0157_20110323_071813_EX1101.txt.mb163 9.17MB Generic YXZ sounding format
EX1101_EXApril09_2011-082_0158_20110323_082550_EX1101.txt.mb163 1.71MB Generic YXZ sounding format
EX1101_EXApril09_2011-082_0159_20110323_083710_EX1101.txt.mb163 8.00MB Generic YXZ sounding format
EX1101_EXApril09_2011-082_0160_20110323_094348_EX1101.txt.mb163 0.70MB Generic YXZ sounding format
EX1101_EXApril09_2011-082_0161_20110323_094756_EX1101.txt.mb163 1.01MB Generic YXZ sounding format
EX1101_EXApril09_2011-082_0162_20110323_095310_EX1101.txt.mb163 9.77MB Generic YXZ sounding format
EX1101_EXApril09_2011-082_0163_20110323_105709_EX1101.txt.mb163 503.2KB Generic YXZ sounding format
EX1101_EXApril09_2011-082_0164_20110323_110024_EX1101.txt.mb163 320.6KB Generic YXZ sounding format
EX1101_EXApril09_2011-082_0165_20110323_110211_EX1101.txt.mb163 290.0KB Generic YXZ sounding format
EX1101_EXApril09_2011-082_0166_20110323_110359_EX1101.txt.mb163 9.47MB Generic YXZ sounding format
EX1101_EXApril09_2011-082_0167_20110323_115546_EX1101.txt.mb163 1.21MB Generic YXZ sounding format
EX1101_EXApril09_2011-082_0168_20110323_120113_EX1101.txt.mb163 10.42MB Generic YXZ sounding format
EX1101_EXApril09_2011-082_0169_20110323_125825_EX1101.txt.mb163 367.7KB Generic YXZ sounding format
EX1101_EXApril09_2011-082_0170_20110323_130110_EX1101.txt.mb163 305.8KB Generic YXZ sounding format
EX1101_EXApril09_2011-082_0171_20110323_130258_EX1101.txt.mb163 160.1KB Generic YXZ sounding format
EX1101_EXApril09_2011-082_0172_20110323_130350_EX1101.txt.mb163 9.91MB Generic YXZ sounding format
EX1101_EXApril09_2011-082_0173_20110323_135352_EX1101.txt.mb163 3.02MB Generic YXZ sounding format
EX1101_EXApril09_2011-082_0174_20110323_140403_EX1101.txt.mb163 10.67MB Generic YXZ sounding format
EX1101_EXApril09_2011-082_0175_20110323_145421_EX1101.txt.mb163 1.52MB Generic YXZ sounding format
EX1101_EXApril09_2011-082_0176_20110323_150143_EX1101.txt.mb163 11.88MB Generic YXZ sounding format
EX1101_EXApril09_2011-082_0177_20110323_155204_EX1101.txt.mb163 2.57MB Generic YXZ sounding format
EX1101_EXApril09_2011-082_0178_20110323_160923_EX1101.txt.mb163 7.54MB Generic YXZ sounding format
EX1101_EXApril09_2011-082_0179_20110323_183819_EX1101.txt.mb163 35.37MB Generic YXZ sounding format
EX1101_EXApril09_2011-082_0180_20110323_215123_EX1101.txt.mb163 13.68MB Generic YXZ sounding format
EX1101_EXApril09_2011-082_0181_20110323_224225_EX1101.txt.mb163 24.16MB Generic YXZ sounding format
EX1101_EXApril09_2011-083_0182_20110324_013357_EX1101.txt.mb163 2.76MB Generic YXZ sounding format
EX1101_EXApril09_2011-083_0183_20110324_015556_EX1101.txt.mb163 18.38MB Generic YXZ sounding format
EX1101_EXApril09_2011-083_0184_20110324_044109_EX1101.txt.mb163 0.98MB Generic YXZ sounding format
EX1101_EXApril09_2011-083_0185_20110324_044520_EX1101.txt.mb163 0.99MB Generic YXZ sounding format
EX1101_EXApril09_2011-083_0186_20110324_045127_EX1101.txt.mb163 321.3KB Generic YXZ sounding format
EX1101_EXApril09_2011-083_0187_20110324_045431_EX1101.txt.mb163 17.04MB Generic YXZ sounding format
EX1101_EXApril09_2011-083_0188_20110324_075142_EX1101.txt.mb163 1.20MB Generic YXZ sounding format
EX1101_EXApril09_2011-083_0189_20110324_080357_EX1101.txt.mb163 194.1KB Generic YXZ sounding format
EX1101_EXApril09_2011-083_0190_20110324_080605_EX1101.txt.mb163 26.71MB Generic YXZ sounding format
EX1101_EXApril09_2011-083_0191_20110324_122317_EX1101.txt.mb163 1.68MB Generic YXZ sounding format
EX1101_EXApril09_2011-083_0192_20110324_122618_EX1101.txt.mb163 5.24MB Generic YXZ sounding format
EX1101_EXApril09_2011-083_0193_20110324_123819_EX1101.txt.mb163 1.02MB Generic YXZ sounding format
EX1101_EXApril09_2011-083_0194_20110324_124148_EX1101.txt.mb163 14.47MB Generic YXZ sounding format
EX1101_EXApril09_2011-083_0195_20110324_154350_EX1101.txt.mb163 5.99MB Generic YXZ sounding format
EX1101_EXApril09_2011-083_0196_20110324_170256_EX1101.txt.mb163 91.8KB Generic YXZ sounding format
EX1101_EXApril09_2011-083_0197_20110324_170411_EX1101.txt.mb163 0.93MB Generic YXZ sounding format
EX1101_EXApril09_2011-083_0198_20110324_171624_EX1101.txt.mb163 84.0KB Generic YXZ sounding format
EX1101_EXApril09_2011-083_0199_20110324_171747_EX1101.txt.mb163 7.96MB Generic YXZ sounding format
EX1101_EXApril09_2011-083_0200_20110324_195137_EX1101.txt.mb163 9.74MB Generic YXZ sounding format
EX1101_EXApril09_2011-083_0201_20110324_214354_EX1101.txt.mb163 7.84MB Generic YXZ sounding format
EX1101_EXApril09_2011-083_0202_20110324_220711_EX1101.txt.mb163 18.60MB Generic YXZ sounding format
EX1101_EXApril09_2011-084_0203_20110325_020610_EX1101.txt.mb163 1.49MB Generic YXZ sounding format
EX1101_EXApril09_2011-084_0204_20110325_022548_EX1101.txt.mb163 12.87MB Generic YXZ sounding format
EX1101_EXApril09_2011-084_0205_20110325_052124_EX1101.txt.mb163 1.08MB Generic YXZ sounding format
EX1101_EXApril09_2011-084_0206_20110325_053546_EX1101.txt.mb163 14.32MB Generic YXZ sounding format
EX1101_EXApril09_2011-084_0207_20110325_083735_EX1101.txt.mb163 1.12MB Generic YXZ sounding format
EX1101_EXApril09_2011-084_0208_20110325_084636_EX1101.txt.mb163 14.75MB Generic YXZ sounding format
EX1101_EXApril09_2011-084_0209_20110325_114211_EX1101.txt.mb163 1.14MB Generic YXZ sounding format
EX1101_EXApril09_2011-084_0210_20110325_115224_EX1101.txt.mb163 282.4KB Generic YXZ sounding format
EX1101_EXApril09_2011-084_0211_20110325_115449_EX1101.txt.mb163 16.12MB Generic YXZ sounding format
EX1101_EXApril09_2011-084_0212_20110325_144559_EX1101.txt.mb163 2.03MB Generic YXZ sounding format
EX1101_EXApril09_2011-084_0213_20110325_145809_EX1101.txt.mb163 3.16MB Generic YXZ sounding format
EX1101_EXApril09_2011-084_0214_20110325_153557_EX1101.txt.mb163 6.99MB Generic YXZ sounding format
EX1101_EXApril09_2011-084_0215_20110325_170619_EX1101.txt.mb163 142.2KB Generic YXZ sounding format
EX1101_EXApril09_2011-084_0216_20110325_171837_EX1101.txt.mb163 5.84MB Generic YXZ sounding format
EX1101_EXApril09_2011-084_0217_20110325_181642_EX1101.txt.mb163 0.69MB Generic YXZ sounding format
EX1101_EXApril09_2011-084_0218_20110325_182144_EX1101.txt.mb163 9.84MB Generic YXZ sounding format
EX1101_EXApril09_2011-084_0219_20110325_192656_EX1101.txt.mb163 5.08MB Generic YXZ sounding format
EX1101_EXApril09_2011-084_0220_20110325_200809_EX1101.txt.mb163 0.82MB Generic YXZ sounding format
EX1101_EXApril09_2011-084_0221_20110325_201431_EX1101.txt.mb163 5.80MB Generic YXZ sounding format
EX1101_EXApril09_2011-084_0223_20110325_213959_EX1101.txt.mb163 8.90MB Generic YXZ sounding format
EX1101_EXApril09_2011-084_0224_20110325_222708_EX1101.txt.mb163 3.15MB Generic YXZ sounding format
EX1101_EXApril09_2011-084_0225_20110325_223902_EX1101.txt.mb163 3.60MB Generic YXZ sounding format
EX1101_EXApril09_2011-084_0226_20110325_225738_EX1101.txt.mb163 2.85MB Generic YXZ sounding format
EX1101_EXApril09_2011-084_0227_20110325_231630_EX1101.txt.mb163 2.48MB Generic YXZ sounding format
EX1101_EXApril09_2011-084_0228_20110325_232501_EX1101.txt.mb163 1.39MB Generic YXZ sounding format
EX1101_EXApril09_2011-084_0229_20110325_232945_EX1101.txt.mb163 2.06MB Generic YXZ sounding format
EX1101_EXApril09_2011-084_0230_20110325_233622_EX1101.txt.mb163 2.55MB Generic YXZ sounding format
EX1101_EXApril09_2011-084_0231_20110325_234409_EX1101.txt.mb163 18.41MB Generic YXZ sounding format
EX1101_EXApril09_2011-084_0232_20110326_010147_EX1101.txt.mb163 2.58MB Generic YXZ sounding format
EX1101_EXApril09_2011-084_0233_20110326_022122_EX1101.txt.mb163 6.24MB Generic YXZ sounding format
EX1101_EXApril09_2011-084_0234_20110326_030944_EX1101.txt.mb163 25.96MB Generic YXZ sounding format
EX1101_EXApril09_2011-084_0235_20110326_090952_EX1101.txt.mb163 10.10MB Generic YXZ sounding format
EX1101_EXApril09_2011-084_0236_20110326_145838_EX1101.txt.mb163 362.3KB Generic YXZ sounding format
EX1101_EXApril09_2011-085_0237_20110326_151337_EX1101.txt.mb163 10.81MB Generic YXZ sounding format
EX1101_EXApril09_2011-085_0238_20110326_202009_EX1101.txt.mb163 0.61MB Generic YXZ sounding format
EX1101_EXApril09_2011-085_0239_20110326_204315_EX1101.txt.mb163 8.95MB Generic YXZ sounding format
EX1101_EXApril09_2011-085_0240_20110327_001436_EX1101.txt.mb163 4.37MB Generic YXZ sounding format
EX1101_EXApril09_2011-085_0241_20110327_030553_EX1101.txt.mb163 473.0KB Generic YXZ sounding format
EX1101_EXApril09_2011-086_0242_20110327_032454_EX1101.txt.mb163 4.45MB Generic YXZ sounding format
EX1101_EXApril09_2011-086_0243_20110327_061225_EX1101.txt.mb163 8.49MB Generic YXZ sounding format
EX1101_EXApril09_2011-086_0244_20110327_093725_EX1101.txt.mb163 0.71MB Generic YXZ sounding format
EX1101_EXApril09_2011-086_0245_20110327_100213_EX1101.txt.mb163 7.12MB Generic YXZ sounding format
EX1101_EXApril09_2011-086_0246_20110327_131241_EX1101.txt.mb163 2.84MB Generic YXZ sounding format
EX1101_EXApril09_2011-086_0247_20110327_151418_EX1101.txt.mb163 1.95MB Generic YXZ sounding format
EX1101_EXApril09_2011-086_0248_20110327_162514_EX1101.txt.mb163 55.1KB Generic YXZ sounding format
EX1101_EXApril09_2011-086_0249_20110327_163839_EX1101.txt.mb163 236.4KB Generic YXZ sounding format
EX1101_EXApril09_2011-086_0250_20110327_164658_EX1101.txt.mb163 8.79MB Generic YXZ sounding format
EX1101_EXApril09_2011-086_0251_20110327_220030_EX1101.txt.mb163 56.4KB Generic YXZ sounding format
EX1101_EXApril09_2011-086_0252_20110327_222318_EX1101.txt.mb163 2.83MB Generic YXZ sounding format
EX1101_EXApril09_2011-087_0253_20110328_000941_EX1101.txt.mb163 6.80MB Generic YXZ sounding format
EX1101_EXApril09_2011-087_0254_20110328_042231_EX1101.txt.mb163 478.8KB Generic YXZ sounding format
EX1101_EXApril09_2011-087_0255_20110328_044119_EX1101.txt.mb163 5.07MB Generic YXZ sounding format
EX1101_EXApril09_2011-087_0256_20110328_075313_EX1101.txt.mb163 4.61MB Generic YXZ sounding format
EX1101_EXApril09_2011-087_0257_20110328_104804_EX1101.txt.mb163 0.67MB Generic YXZ sounding format
EX1101_EXApril09_2011-087_0258_20110328_111214_EX1101.txt.mb163 4.83MB Generic YXZ sounding format
EX1101_EXApril09_2011-087_0259_20110328_142147_EX1101.txt.mb163 4.95MB Generic YXZ sounding format
EX1101_EXApril09_2011-087_0260_20110328_172812_EX1101.txt.mb163 0.51MB Generic YXZ sounding format
EX1101_EXApril09_2011-087_0261_20110328_174843_EX1101.txt.mb163 8.87MB Generic YXZ sounding format
EX1101_EXApril09_2011-087_0262_20110328_231815_EX1101.txt.mb163 104.4KB Generic YXZ sounding format
EX1101_EXApril09_2011-087_0263_20110328_233603_EX1101.txt.mb163 37.9KB Generic YXZ sounding format
EX1101_EXApril09_2011-087_0264_20110328_234033_EX1101.txt.mb163 108.4KB Generic YXZ sounding format
EX1101_EXApril09_2011-088_0265_20110329_000002_EX1101.txt.mb163 1.29MB Generic YXZ sounding format
EX1101_EXApril09_2011-088_0266_20110329_031201_EX1101.txt.mb163 337.1KB Generic YXZ sounding format
EX1101_EXApril09_2011-088_0267_20110329_041253_EX1101.txt.mb163 1.68MB Generic YXZ sounding format
EX1101_EXApril09_2011-088_0268_20110329_052747_EX1101.txt.mb163 15.98MB Generic YXZ sounding format
EX1101_EXApril09_2011-088_0269_20110329_110307_EX1101.txt.mb163 42.03MB Generic YXZ sounding format
EX1101_EXApril09_2011-088_0270_20110329_170308_EX1101.txt.mb163 9.65MB Generic YXZ sounding format
EX1101_EXApril09_2011-088_0271_20110329_182114_EX1101.txt.mb163 11.26MB Generic YXZ sounding format
EX1101_EXApril09_2011-088_0272_20110329_195105_EX1101.txt.mb163 0.78MB Generic YXZ sounding format
EX1101_EXApril09_2011-088_0273_20110329_201102_EX1101.txt.mb163 6.52MB Generic YXZ sounding format
EX1101_EXApril09_2011-088_0274_20110329_204321_EX1101.txt.mb163 11.87MB Generic YXZ sounding format
EX1101_EXApril09_2011-088_0275_20110329_222706_EX1101.txt.mb163 3.59MB Generic YXZ sounding format
EX1101_EXApril09_2011-088_0276_20110329_224742_EX1101.txt.mb163 4.80MB Generic YXZ sounding format
EX1101_EXApril09_2011-088_0277_20110329_232431_EX1101.txt.mb163 0.88MB Generic YXZ sounding format
EX1101_EXApril09_2011-088_0278_20110329_233531_EX1101.txt.mb163 3.12MB Generic YXZ sounding format
EX1101_EXApril09_2011-089_0279_20110330_000020_EX1101.txt.mb163 5.81MB Generic YXZ sounding format
EX1101_EXApril09_2011-089_0280_20110330_003855_EX1101.txt.mb163 0.64MB Generic YXZ sounding format
EX1101_EXApril09_2011-089_0281_20110330_004732_EX1101.txt.mb163 8.14MB Generic YXZ sounding format
EX1101_EXApril09_2011-089_0282_20110330_012933_EX1101.txt.mb163 410.9KB Generic YXZ sounding format
EX1101_EXApril09_2011-089_0283_20110330_013442_EX1101.txt.mb163 13.15MB Generic YXZ sounding format
EX1101_EXApril09_2011-089_0284_20110330_024133_EX1101.txt.mb163 0.77MB Generic YXZ sounding format
EX1101_EXApril09_2011-089_0285_20110330_024628_EX1101.txt.mb163 6.76MB Generic YXZ sounding format
EX1101_EXApril09_2011-089_0286_20110330_032841_EX1101.txt.mb163 1.10MB Generic YXZ sounding format
EX1101_EXApril09_2011-089_0287_20110330_033735_EX1101.txt.mb163 8.20MB Generic YXZ sounding format
EX1101_EXApril09_2011-089_0288_20110330_043954_EX1101.txt.mb163 1.43MB Generic YXZ sounding format
EX1101_EXApril09_2011-089_0289_20110330_045028_EX1101.txt.mb163 4.22MB Generic YXZ sounding format
EX1101_EXApril09_2011-089_0290_20110330_053112_EX1101.txt.mb163 405.7KB Generic YXZ sounding format
EX1101_EXApril09_2011-089_0291_20110330_053543_EX1101.txt.mb163 4.63MB Generic YXZ sounding format
EX1101_EXApril09_2011-089_0292_20110330_062823_EX1101.txt.mb163 3.86MB Generic YXZ sounding format
EX1101_EXApril09_2011-089_0293_20110330_071729_EX1101.txt.mb163 1.66MB Generic YXZ sounding format
EX1101_EXApril09_2011-089_0294_20110330_073840_EX1101.txt.mb163 5.79MB Generic YXZ sounding format
EX1101_EXApril09_2011-089_0295_20110330_083032_EX1101.txt.mb163 0.80MB Generic YXZ sounding format
EX1101_EXApril09_2011-089_0296_20110330_084051_EX1101.txt.mb163 13.31MB Generic YXZ sounding format
EX1101_EXApril09_2011-089_0297_20110330_100711_EX1101.txt.mb163 1.14MB Generic YXZ sounding format
EX1101_EXApril09_2011-089_0298_20110330_101557_EX1101.txt.mb163 10.51MB Generic YXZ sounding format
EX1101_EXApril09_2011-089_0299_20110330_112344_EX1101.txt.mb163 0.61MB Generic YXZ sounding format
EX1101_EXApril09_2011-089_0300_20110330_113221_EX1101.txt.mb163 10.03MB Generic YXZ sounding format
EX1101_EXApril09_2011-089_0301_20110330_130337_EX1101.txt.mb163 1.74MB Generic YXZ sounding format
EX1101_EXApril09_2011-089_0302_20110330_132245_EX1101.txt.mb163 6.08MB Generic YXZ sounding format
EX1101_EXApril09_2011-089_0303_20110330_142821_EX1101.txt.mb163 1.16MB Generic YXZ sounding format
EX1101_EXApril09_2011-089_0304_20110330_144351_EX1101.txt.mb163 4.70MB Generic YXZ sounding format
EX1101_EXApril09_2011-089_0305_20110330_154219_EX1101.txt.mb163 0.84MB Generic YXZ sounding format
EX1101_EXApril09_2011-089_0306_20110330_155215_EX1101.txt.mb163 12.92MB Generic YXZ sounding format
EX1101_EXApril09_2011-089_0307_20110330_181724_EX1101.txt.mb163 8.86MB Generic YXZ sounding format
EX1101_EXApril09_2011-089_0308_20110330_195013_EX1101.txt.mb163 323.2KB Generic YXZ sounding format
EX1101_EXApril09_2011-089_0309_20110330_195426_EX1101.txt.mb163 2.61MB Generic YXZ sounding format
EX1101_EXApril09_2011-089_0310_20110330_210341_EX1101.txt.mb163 20.90MB Generic YXZ sounding format
EX1101_EXApril09_2011-089_0311_20110330_222733_EX1101.txt.mb163 5.77MB Generic YXZ sounding format
EX1101_EXApril09_2011-089_0312_20110330_231025_EX1101.txt.mb163 2.20MB Generic YXZ sounding format
EX1101_EXApril09_2011-090_0314_20110331_032619_EX1101.txt.mb163 31.84MB Generic YXZ sounding format
EX1101_EXApril09_2011-090_0315_20110331_092617_EX1101.txt.mb163 20.89MB Generic YXZ sounding format
EX1101_EXApril09_2011-090_0316_20110331_110952_EX1101.txt.mb163 1.94MB Generic YXZ sounding format
EX1101_EXApril09_2011-090_0317_20110331_112424_EX1101.txt.mb163 24.08MB Generic YXZ sounding format

Products: 25

Files File Size Description
EX1101_MB_FNL_ALL_WGS84.kmz.gz 28.07MB Compressed Keyhole Markup Language file
EX1101_MB_FNL_CINMS_30m_WGS84.sd.gz 16.17MB Fledermaus surface
EX1101_MB_FNL_CINMS_30m_WGS84.tif.gz 15.45MB GeoTIFF survey image
EX1101_MB_FNL_CINMS_30m_WGS84.txt.gz 49.41MB ASCII text product
EX1101_MB_FNL_Hancock_109_Seamnts_25m_WGS84.sd.gz 4.15MB Fledermaus surface
EX1101_MB_FNL_Hancock_109_Seamnts_25m_WGS84.tif.gz 23.55MB GeoTIFF survey image
EX1101_MB_FNL_Hancock_109_Seamnts_25m_WGS84.txt.gz 12.56MB ASCII text product
EX1101_MB_FNL_PatchTest_50m_WGS84.sd.gz 0.67MB Fledermaus surface
EX1101_MB_FNL_PatchTest_50m_WGS84.tif.gz 15.51MB GeoTIFF survey image
EX1101_MB_FNL_PatchTest_50m_WGS84.txt.gz 1.76MB ASCII text product
EX1101_MB_FNL_SanJuanSeamnt_75m_WGS84.sd.gz 3.28MB Fledermaus surface
EX1101_MB_FNL_SanJuanSeamnt_75m_WGS84.tif.gz 31.00MB GeoTIFF survey image
EX1101_MB_FNL_SanJuanSeamnt_75m_WGS84.txt.gz 11.41MB ASCII text product
EX1101_MB_FNL_SouthMBNMS_25m_WGS84.sd.gz 3.33MB Fledermaus surface
EX1101_MB_FNL_SouthMBNMS_25m_WGS84.tif.gz 16.83MB GeoTIFF survey image
EX1101_MB_FNL_SouthMBNMS_25m_WGS84.txt.gz 8.75MB ASCII text product
EX1101_MB_FNL_SurRidge_30m_WGS84.sd.gz 3.20MB Fledermaus surface
EX1101_MB_FNL_SurRidge_30m_WGS84.tif.gz 15.26MB GeoTIFF survey image
EX1101_MB_FNL_SurRidge_30m_WGS84.txt.gz 9.06MB ASCII text product
EX1101_MB_FNL_Transit_North_50m_WGS84.sd.gz 4.06MB Fledermaus surface
EX1101_MB_FNL_Transit_North_50m_WGS84.tif.gz 0.58MB GeoTIFF survey image
EX1101_MB_FNL_Transit_North_50m_WGS84.txt.gz 10.40MB ASCII text product
EX1101_MB_FNL_Transit_South_50m_WGS84.sd.gz 4.61MB Fledermaus surface
EX1101_MB_FNL_Transit_South_50m_WGS84.tif.gz 2.17MB GeoTIFF survey image
EX1101_MB_FNL_Transit_South_50m_WGS84.txt.gz 13.09MB ASCII text product

Metadata Files: 9

Files File Size Description
EX1101_Multibeam.xml NCEI created ISO metadata
EX1101_Cruise_Level.xml 3.0KB XML metadata file
EX1101_Profile_Data.xml 5.3KB XML metadata file
Level_2_Data_EX1101_Geotiff.xml 8.7KB XML metadata file
Level_2_Data_EX1101_GoogleEarth_KMZ.xml 8.2KB XML metadata file
Level_2_Data_EX1101_IVS_sd_File.xml 8.4KB XML metadata file
Level_2_Data_EX1101_XYZ_of_Survey_Area.xml 8.9KB XML metadata file
v1_file_metadata.tar.gz 38.2KB File level metadata
v2_file_metadata.tar.gz 42.4KB File level metadata

Ancillary Files: 2

Files File Size Description
ctd.tar.gz 15.73MB Conductivity, Temperature, Depth (CTD) data
xbt.tar.gz 1.15MB Expendable Bathythermograph (XBT) data

Water Column Sonar Data

Water Column Sonar Data Available: WCSD Map Viewer